Monroe, MI

12:42 AM EDT on September 24, 2017 (GMT -0400)
Custer

Weather History for KTTF - October, 2013

Change the Weather History Date:

Sunday, October 6, 2013

  Actual Average Record
Temperature  
Mean Temperature 66 °F -  
Max Temperature 75 °F 66 °F 89 °F (1963)
Min Temperature 57 °F 46 °F 27 °F (1935)
Cooling Degree Days 1    
Growing Degree Days 16 (Base 50)    
Moisture  
Dew Point 65 °F    
Average Humidity 90    
Maximum Humidity 100    
Minimum Humidity 73    
Precipitation  
Precipitation 0.00 in - - ()
Sea Level Pressure  
Sea Level Pressure 29.76 in    
Wind  
Wind Speed 7 mph (SSW)    
Max Wind Speed 14 mph    
Max Gust Speed 24 mph    
Visibility 9 miles    
Events Rain    
Averages and records for this station are not official NWS values.
T = Trace of Precipitation, MM = Missing Value Source: NWS Daily Summary

Daily Weather History Graph

Daily Weather History Graph

Search for Another Location

Airport or City:

Trip Planner

Search our weather history database for the weather conditions in past years. The results will help you decide how hot, cold, wet, or windy it might be!

Date:

Astronomy

Oct. 06, 2013 Rise Set
Actual Time 7:36 AM EDT 7:06 PM EDT
Civil Twilight 7:08 AM EDT 7:34 PM EDT
Nautical Twilight 6:36 AM EDT 8:06 PM EDT
Astronomical Twilight 6:03 AM EDT 8:38 PM EDT
Moon 9:21 AM EDT (10/6) 8:02 PM EDT (10/6)
Length of Visible Light 12h 25m
Length of Day
11h 30m
Waxing Crescent, 3% of the Moon is Illuminated
Oct 6
Waxing Crescent
Oct 11
First Quarter
Oct 18
Full
Oct 26
Last Quarter
Nov 3
New

Hourly Weather History & Observations

Time (EDT) Temp. Dew Point Humidity Pressure Visibility Wind Dir Wind Speed Gust Speed Precip Events Conditions
12:14 AM 71.6 °F 69.8 °F 94% 29.87 in 5.0 mi SSE 4.6 mph - N/A   Clear
12:34 AM 71.6 °F 69.8 °F 94% 29.85 in 5.0 mi SE 3.5 mph - N/A   Clear
12:54 AM 71.6 °F 69.8 °F 94% 29.85 in 5.0 mi SSE 4.6 mph - N/A   Clear
1:15 AM 71.6 °F 69.8 °F 94% 29.85 in 4.0 mi South 3.5 mph - N/A   Mostly Cloudy
1:35 AM 71.6 °F 69.8 °F 94% 29.85 in 4.0 mi South 4.6 mph - N/A   Mostly Cloudy
1:55 AM 71.6 °F 69.8 °F 94% 29.85 in 5.0 mi South 4.6 mph - N/A   Scattered Clouds
2:15 AM 71.6 °F 69.8 °F 94% 29.85 in 7.0 mi South 6.9 mph - N/A   Scattered Clouds
2:35 AM 71.6 °F 69.8 °F 94% 29.85 in 7.0 mi South 6.9 mph - N/A   Scattered Clouds
2:55 AM 71.6 °F 69.8 °F 94% 29.85 in 10.0 mi South 8.1 mph - N/A   Mostly Cloudy
3:15 AM 71.6 °F 69.8 °F 94% 29.84 in 10.0 mi South 5.8 mph - N/A   Mostly Cloudy
3:36 AM 71.6 °F 69.8 °F 94% 29.84 in 10.0 mi SSW 5.8 mph - N/A   Scattered Clouds
3:56 AM 71.6 °F 69.8 °F 94% 29.84 in 10.0 mi South 8.1 mph - N/A   Mostly Cloudy
4:16 AM 71.6 °F 68.0 °F 88% 29.83 in 10.0 mi SSW 8.1 mph - N/A   Scattered Clouds
4:36 AM 71.6 °F 68.0 °F 88% 29.82 in 10.0 mi SSW 5.8 mph - N/A   Scattered Clouds
4:56 AM 71.6 °F 68.0 °F 88% 29.82 in 10.0 mi SSW 8.1 mph - N/A   Light Drizzle
5:16 AM 71.6 °F 66.2 °F 83% 29.82 in 10.0 mi SSW 8.1 mph - N/A Rain Light Rain
5:36 AM 69.8 °F 66.2 °F 88% 29.82 in 10.0 mi South 8.1 mph - N/A Rain Light Rain
5:56 AM 69.8 °F 66.2 °F 88% 29.82 in 10.0 mi South 5.8 mph - N/A Rain Light Rain
6:16 AM 69.8 °F 68.0 °F 94% 29.82 in 10.0 mi South 5.8 mph - N/A Rain Light Rain
6:36 AM 69.8 °F 68.0 °F 94% 29.82 in 7.0 mi South 5.8 mph - N/A Rain Light Rain
6:56 AM 69.8 °F 68.0 °F 94% 29.80 in 10.0 mi SSE 9.2 mph - N/A   Light Drizzle
7:17 AM 69.8 °F 68.0 °F 94% 29.80 in 10.0 mi South 10.4 mph - N/A   Light Drizzle
7:37 AM 69.8 °F 68.0 °F 94% 29.80 in 10.0 mi South 10.4 mph - N/A   Light Drizzle
7:52 AM 69.8 °F 66.2 °F 88% 29.80 in 10.0 mi South 10.4 mph - N/A   Light Drizzle
8:12 AM 69.8 °F 66.2 °F 88% 29.80 in 10.0 mi South 11.5 mph 18.4 mph N/A   Light Drizzle
8:32 AM 69.8 °F 66.2 °F 88% 29.79 in 10.0 mi South 13.8 mph - N/A   Light Drizzle
8:52 AM 69.8 °F 66.2 °F 88% 29.80 in 10.0 mi South 10.4 mph 17.3 mph N/A Rain Light Rain
9:12 AM 69.8 °F 66.2 °F 88% 29.79 in 10.0 mi South 10.4 mph - N/A Rain Light Rain
9:32 AM 69.8 °F 68.0 °F 94% 29.79 in 10.0 mi SSW 6.9 mph - N/A Rain Light Rain
9:52 AM 69.8 °F 68.0 °F 94% 29.77 in 10.0 mi SSW 6.9 mph - N/A Rain Light Rain
10:13 AM 71.6 °F 68.0 °F 88% 29.76 in 10.0 mi SSE 6.9 mph - N/A   Clear
10:33 AM 71.6 °F 68.0 °F 88% 29.76 in 10.0 mi SSE 8.1 mph - N/A Rain Light Rain
10:53 AM 69.8 °F 68.0 °F 94% 29.76 in 10.0 mi South 9.2 mph - N/A Rain Light Rain
11:13 AM 71.6 °F 68.0 °F 88% 29.76 in 10.0 mi South 8.1 mph - N/A Rain Light Rain
11:33 AM 71.6 °F 68.0 °F 88% 29.76 in 10.0 mi South 10.4 mph - N/A Rain Light Rain
11:53 AM 69.8 °F 68.0 °F 94% 29.77 in 10.0 mi SSW 10.4 mph - N/A Rain Light Rain
12:13 PM 71.6 °F 68.0 °F 88% 29.76 in 10.0 mi SSW 9.2 mph - N/A Rain Light Rain
12:33 PM 71.6 °F 68.0 °F 88% 29.75 in 10.0 mi SSW 9.2 mph - N/A Rain Light Rain
12:53 PM 71.6 °F 66.2 °F 83% 29.76 in 10.0 mi SSW 10.4 mph - N/A Rain Light Rain
1:13 PM 69.8 °F 66.2 °F 88% 29.75 in 10.0 mi SSW 9.2 mph 17.3 mph N/A Rain Light Rain
1:33 PM 71.6 °F 66.2 °F 83% 29.74 in 10.0 mi SSW 10.4 mph - N/A Rain Light Rain
1:53 PM 71.6 °F 66.2 °F 83% 29.73 in 10.0 mi SSW 9.2 mph - N/A   Clear
2:14 PM 71.6 °F 66.2 °F 83% 29.70 in 10.0 mi South 6.9 mph - N/A   Scattered Clouds
2:34 PM 73.4 °F 66.2 °F 78% 29.69 in 10.0 mi South 10.4 mph - N/A   Scattered Clouds
2:54 PM 73.4 °F 66.2 °F 78% 29.69 in 10.0 mi South 11.5 mph - N/A   Scattered Clouds
3:14 PM 73.4 °F 66.2 °F 78% 29.68 in 10.0 mi South 10.4 mph 16.1 mph N/A   Scattered Clouds
3:34 PM 75.2 °F 66.2 °F 73% 29.67 in 10.0 mi South 9.2 mph - N/A   Scattered Clouds
3:54 PM 75.2 °F 66.2 °F 73% 29.66 in 10.0 mi South 10.4 mph 16.1 mph N/A   Clear
4:14 PM 75.2 °F 66.2 °F 73% 29.66 in 10.0 mi South 8.1 mph - N/A   Scattered Clouds
4:35 PM 75.2 °F 66.2 °F 73% 29.66 in 10.0 mi South 11.5 mph 18.4 mph N/A   Mostly Cloudy
4:55 PM 73.4 °F 66.2 °F 78% 29.65 in 10.0 mi South 11.5 mph 18.4 mph N/A Rain Rain
5:15 PM 71.6 °F 68.0 °F 88% 29.65 in 5.0 mi SSW 10.4 mph - N/A Rain Light Rain
5:35 PM 68.0 °F 64.4 °F 88% 29.67 in 4.0 mi West 13.8 mph 24.2 mph N/A Rain Light Rain
5:55 PM 64.4 °F 62.6 °F 94% 29.69 in 3.0 mi West 10.4 mph 17.3 mph N/A Rain Heavy Rain
6:15 PM 64.4 °F 62.6 °F 94% 29.68 in 7.0 mi West 8.1 mph - N/A Rain Light Rain
6:35 PM 64.4 °F 62.6 °F 94% 29.68 in 10.0 mi West 5.8 mph - N/A Rain Light Rain
6:55 PM 64.4 °F 62.6 °F 94% 29.68 in 10.0 mi WSW 5.8 mph - N/A   Overcast
7:16 PM 64.4 °F 62.6 °F 94% 29.70 in 10.0 mi WSW 8.1 mph - N/A   Overcast
7:36 PM 62.6 °F 60.8 °F 94% 29.70 in 10.0 mi WSW 6.9 mph - N/A   Overcast
7:56 PM 62.6 °F 60.8 °F 94% 29.72 in 10.0 mi WSW 10.4 mph 18.4 mph N/A Rain Light Rain
8:16 PM 62.6 °F 59.0 °F 88% 29.73 in 10.0 mi WSW 9.2 mph - N/A Rain Light Rain
8:36 PM 60.8 °F 59.0 °F 94% 29.71 in 10.0 mi WSW 6.9 mph - N/A Rain Light Rain
8:56 PM 60.8 °F 59.0 °F 94% 29.71 in 10.0 mi WSW 8.1 mph - N/A   Overcast
9:16 PM 60.8 °F 59.0 °F 94% 29.72 in 10.0 mi WSW 9.2 mph - N/A   Overcast
9:36 PM 60.8 °F 57.2 °F 88% 29.72 in 10.0 mi WSW 6.9 mph - N/A   Overcast
9:56 PM 60.8 °F 57.2 °F 88% 29.74 in 10.0 mi SW 8.1 mph - N/A   Mostly Cloudy
10:16 PM 59.0 °F 57.2 °F 94% 29.73 in 10.0 mi WSW 6.9 mph - N/A Rain Light Rain
10:36 PM 59.0 °F 57.2 °F 94% 29.74 in 10.0 mi WSW 8.1 mph - N/A   Overcast
10:56 PM 59.0 °F 57.2 °F 94% 29.74 in 10.0 mi SW 6.9 mph - N/A Rain Light Rain
11:17 PM 59.0 °F 57.2 °F 94% 29.73 in 10.0 mi SW 5.8 mph - N/A   Mostly Cloudy
11:32 PM 57.2 °F 57.2 °F 100% 29.73 in 10.0 mi WSW 5.8 mph - N/A Rain Light Rain
11:52 PM 57.2 °F 57.2 °F 100% 29.73 in 10.0 mi WSW 5.8 mph - N/A   Scattered Clouds